| time (UTC) | temp F | wind direction | speed MPH | gust MPH | rain 1hr in | rain 24hr in | rain mn in | humidity % | barometer mb |
| 20260903223054 | 74 | 126 | 2.0 | 8.0 | 0.00 | 0.02 | 0.02 | 81 | 1007.7 |
| 20260903221553 | 75 | 116 | 4.0 | 7.0 | 0.00 | 0.02 | 0.02 | 79 | 1008.1 |
| 20260903220049 | 76 | 98 | 2.0 | 7.0 | 0.00 | 0.02 | 0.02 | 79 | 1008.1 |
| 20260903214605 | 77 | 134 | 4.0 | 7.0 | 0.00 | 0.02 | 0.02 | 78 | 1008.1 |
| 20260903213049 | 77 | 138 | 1.0 | 5.0 | 0.00 | 0.02 | 0.02 | 79 | 1008.1 |
| 20260903211545 | 76 | 187 | 1.0 | 5.0 | 0.00 | 0.02 | 0.02 | 80 | 1008.1 |
| 20260903210045 | 75 | 92 | 0.0 | 6.0 | 0.00 | 0.02 | 0.02 | 80 | 1008.1 |
| 20260903204536 | 73 | 140 | 0.0 | 0.0 | 0.00 | 0.02 | 0.02 | 84 | 1008.1 |
| 20260903203034 | 73 | 140 | 0.0 | 0.0 | 0.00 | 0.02 | 0.02 | 83 | 1008.2 |
| 20260903201537 | 73 | 141 | 0.0 | 2.0 | 0.00 | 0.02 | 0.02 | 83 | 1008.2 |
| 20260903200030 | 72 | 225 | 0.0 | 0.0 | 0.00 | 0.02 | 0.02 | 84 | 1008.6 |
| 20260903194527 | 71 | 225 | 0.0 | 5.0 | 0.00 | 0.02 | 0.02 | 86 | 1008.6 |
| 20260903193025 | 70 | 316 | 0.0 | 0.0 | 0.00 | 0.02 | 0.02 | 86 | 1008.8 |
| 20260903191523 | 70 | 289 | 1.0 | 5.0 | 0.00 | 0.02 | 0.02 | 85 | 1009.1 |
| 20260903190023 | 70 | 312 | 0.0 | 4.0 | 0.00 | 0.02 | 0.02 | 86 | 1009.1 |
| 20260903184521 | 70 | 317 | 0.0 | 7.0 | 0.00 | 0.02 | 0.02 | 86 | 1008.9 |
| 20260903183018 | 69 | 311 | 0.0 | 5.0 | 0.00 | 0.02 | 0.02 | 88 | 1009.1 |
| 20260903181514 | 67 | 346 | 2.0 | 6.0 | 0.00 | 0.02 | 0.02 | 90 | 1009.4 |
| 20260903180018 | 66 | 338 | 0.0 | 5.0 | 0.00 | 0.02 | 0.02 | 91 | 1009.6 |
| 20260903174509 | 66 | 330 | 0.0 | 2.0 | 0.00 | 0.02 | 0.02 | 92 | 1009.7 |
| 20260903173007 | 65 | 336 | 0.0 | 6.0 | 0.00 | 0.02 | 0.02 | 92 | 1009.8 |
| 20260903171509 | 65 | 334 | 0.0 | 6.0 | 0.00 | 0.02 | 0.02 | 92 | 1010.0 |
| 20260903170004 | 65 | 340 | 1.0 | 4.0 | 0.00 | 0.02 | 0.02 | 93 | 1009.9 |
| 20260903164503 | 64 | 340 | 2.0 | 6.0 | 0.00 | 0.02 | 0.02 | 92 | 1009.8 |
| 20260903163002 | 64 | 9 | 0.0 | 4.0 | 0.00 | 0.02 | 0.02 | 93 | 1010.0 |
| 20260903161502 | 64 | 309 | 0.0 | 7.0 | 0.00 | 0.02 | 0.02 | 93 | 1009.9 |
| 20260903160059 | 64 | 345 | 1.0 | 6.0 | 0.00 | 0.02 | 0.02 | 93 | 1009.9 |
| 20260903154601 | 64 | 344 | 1.0 | 6.0 | 0.00 | 0.02 | 0.02 | 94 | 1010.0 |
| 20260903153112 | 63 | 19 | 2.0 | 6.0 | 0.00 | 0.02 | 0.02 | 94 | 1010.3 |
| 20260903151559 | 63 | 5 | 0.0 | 5.0 | 0.00 | 0.02 | 0.02 | 94 | 1010.5 |
| 20260903150104 | 63 | 332 | 0.0 | 4.0 | 0.00 | 0.02 | 0.02 | 94 | 1010.6 |
| 20260903144553 | 63 | 294 | 0.0 | 4.0 | 0.00 | 0.02 | 0.02 | 94 | 1010.7 |
| 20260903143103 | 62 | 32 | 2.0 | 5.0 | 0.00 | 0.02 | 0.02 | 95 | 1010.5 |
| 20260903141549 | 62 | 121 | 0.0 | 0.0 | 0.00 | 0.02 | 0.02 | 95 | 1010.7 |
| 20260903140048 | 62 | 121 | 0.0 | 0.0 | 0.00 | 0.02 | 0.02 | 95 | 1010.9 |
| 20260903134549 | 61 | 121 | 0.0 | 0.0 | 0.00 | 0.02 | 0.02 | 95 | 1010.9 |
| 20260903133045 | 61 | 122 | 0.0 | 0.0 | 0.00 | 0.02 | 0.02 | 95 | 1010.8 |
| 20260903131544 | 61 | 121 | 0.0 | 0.0 | 0.00 | 0.02 | 0.02 | 95 | 1010.8 |
| 20260903130044 | 61 | 122 | 1.0 | 2.0 | 0.00 | 0.02 | 0.02 | 95 | 1010.9 |
| 20260903124543 | 61 | 121 | 0.0 | 0.0 | 0.00 | 0.02 | 0.02 | 95 | 1010.9 |
| 20260903123041 | 60 | 122 | 1.0 | 4.0 | 0.00 | 0.02 | 0.02 | 95 | 1011.1 |
| 20260903121540 | 60 | 121 | 0.0 | 4.0 | 0.00 | 0.02 | 0.02 | 95 | 1011.4 |
| 20260903120044 | 60 | 121 | 0.0 | 6.0 | 0.00 | 0.02 | 0.02 | 95 | 1011.4 |
| 20260903114537 | 60 | 120 | 0.0 | 4.0 | 0.00 | 0.02 | 0.02 | 95 | 1011.4 |
| 20260903113035 | 60 | 120 | 1.0 | 5.0 | 0.00 | 0.02 | 0.02 | 95 | 1011.6 |
| 20260903111536 | 59 | 117 | 1.0 | 5.0 | 0.00 | 0.02 | 0.02 | 94 | 1011.8 |
| 20260903110031 | 59 | 150 | 0.0 | 6.0 | 0.00 | 0.02 | 0.02 | 94 | 1011.6 |
| 20260903104530 | 59 | 123 | 2.0 | 4.0 | 0.00 | 0.02 | 0.02 | 94 | 1011.5 |
| 20260903103028 | 60 | 149 | 0.0 | 7.0 | 0.00 | 0.02 | 0.02 | 94 | 1011.4 |
| 20260903101528 | 60 | 119 | 0.0 | 5.0 | 0.01 | 0.02 | 0.02 | 94 | 1011.6 |
| 20260903100030 | 60 | 165 | 0.0 | 4.0 | 0.01 | 0.02 | 0.02 | 94 | 1011.7 |
| 20260903094526 | 60 | 132 | 2.0 | 5.0 | 0.01 | 0.02 | 0.02 | 94 | 1011.4 |
| 20260903093041 | 60 | 140 | 1.0 | 4.0 | 0.01 | 0.02 | 0.02 | 94 | 1011.5 |
| 20260903091534 | 60 | 120 | 0.0 | 2.0 | 0.00 | 0.01 | 0.01 | 94 | 1011.8 |
| 20260903090028 | 60 | 120 | 0.0 | 2.0 | 0.00 | 0.01 | 0.01 | 94 | 1011.9 |
| 20260903084539 | 60 | 128 | 0.0 | 4.0 | 0.00 | 0.01 | 0.01 | 93 | 1012.1 |
| 20260903083022 | 60 | 123 | 0.0 | 0.0 | 0.01 | 0.01 | 0.01 | 93 | 1012.0 |
| 20260903081520 | 60 | 124 | 1.0 | 5.0 | 0.01 | 0.01 | 0.01 | 93 | 1012.0 |
| 20260903080021 | 60 | 144 | 2.0 | 6.0 | 0.01 | 0.01 | 0.01 | 93 | 1012.3 |
| 20260903074519 | 60 | 141 | 1.0 | 3.0 | 0.01 | 0.01 | 0.01 | 92 | 1012.4 |
| 20260903073019 | 61 | 156 | 2.0 | 7.0 | 0.00 | 0.00 | 0.00 | 92 | 1012.4 |
| 20260903071518 | 61 | 129 | 4.0 | 8.0 | 0.00 | 0.00 | 0.00 | 92 | 1012.3 |
| 20260903070024 | 61 | 121 | 2.0 | 9.0 | 0.00 | 0.00 | 0.00 | 91 | 1012.1 |
| 20260903064514 | 61 | 115 | 3.0 | 8.0 | 0.00 | 0.00 | 0.00 | 91 | 1012.5 |
| 20260903063013 | 61 | 159 | 4.0 | 9.0 | 0.00 | 0.00 | 0.00 | 91 | 1013.0 |
| 20260903061514 | 61 | 98 | 4.0 | 10.0 | 0.00 | 0.00 | 0.00 | 91 | 1013.3 |
| 20260903060011 | 61 | 134 | 1.0 | 8.0 | 0.00 | 0.00 | 0.00 | 91 | 1014.1 |
| 20260903054514 | 61 | 134 | 1.0 | 6.0 | 0.00 | 0.00 | 0.00 | 92 | 1014.2 |
| 20260903053009 | 61 | 146 | 1.0 | 5.0 | 0.00 | 0.00 | 0.00 | 92 | 1014.5 |
| 20260903051509 | 61 | 144 | 0.0 | 5.0 | 0.00 | 0.00 | 0.00 | 92 | 1014.3 |
| 20260903050028 | 61 | 120 | 0.0 | 7.0 | 0.00 | 0.00 | 0.00 | 92 | 1014.2 |
| 20260903044507 | 61 | 96 | 3.0 | 7.0 | 0.00 | 0.00 | 0.00 | 91 | 1014.1 |
| 20260903043008 | 61 | 148 | 2.0 | 7.0 | 0.00 | 0.00 | 0.00 | 91 | 1014.5 |
| 20260903041512 | 62 | 107 | 0.0 | 4.0 | 0.00 | 0.00 | 0.00 | 90 | 1014.5 |
| 20260903040004 | 62 | 126 | 0.0 | 5.0 | 0.00 | 0.00 | 0.00 | 91 | 1014.7 |
| 20260903034504 | 62 | 161 | 2.0 | 6.0 | 0.00 | 0.00 | 0.00 | 90 | 1014.6 |
| 20260903033002 | 62 | 123 | 3.0 | 6.0 | 0.00 | 0.00 | 0.00 | 90 | 1014.9 |
| 20260903031502 | 62 | 119 | 0.0 | 2.0 | 0.00 | 0.00 | 0.00 | 90 | 1015.1 |
| 20260903030001 | 62 | 119 | 0.0 | 2.0 | 0.00 | 0.00 | 0.00 | 90 | 1015.4 |
| 20260903024600 | 62 | 116 | 0.0 | 5.0 | 0.00 | 0.00 | 0.00 | 90 | 1015.3 |
| 20260903024502 | 62 | 116 | 0.0 | 5.0 | 0.00 | 0.00 | 0.00 | 90 | 1015.3 |
| 20260903023106 | 62 | 122 | 1.0 | 5.0 | 0.00 | 0.00 | 0.00 | 89 | 1015.4 |
| 20260903021559 | 62 | 126 | 1.0 | 5.0 | 0.00 | 0.00 | 0.00 | 89 | 1015.7 |
| 20260903020106 | 62 | 173 | 1.0 | 6.0 | 0.00 | 0.00 | 0.00 | 90 | 1015.7 |
| 20260903014602 | 62 | 119 | 2.0 | 7.0 | 0.00 | 0.01 | 0.00 | 90 | 1015.7 |
| 20260903013058 | 62 | 128 | 3.0 | 7.0 | 0.00 | 0.01 | 0.00 | 90 | 1016.0 |
| 20260903011603 | 63 | 120 | 4.0 | 8.0 | 0.00 | 0.01 | 0.00 | 91 | 1015.9 |
| 20260903010058 | 63 | 188 | 2.0 | 9.0 | 0.00 | 0.01 | 0.00 | 91 | 1015.2 |
| 20260903004559 | 63 | 126 | 1.0 | 8.0 | 0.00 | 0.01 | 0.00 | 90 | 1015.1 |
| 20260903003055 | 63 | 136 | 2.0 | 8.0 | 0.00 | 0.01 | 0.00 | 90 | 1015.6 |
| 20260903001607 | 64 | 130 | 3.0 | 9.0 | 0.00 | 0.01 | 0.00 | 89 | 1015.4 |
| 20260903000059 | 64 | 123 | 2.0 | 8.0 | 0.00 | 0.01 | 0.00 | 88 | 1015.6 |
| 20260902234553 | 64 | 123 | 4.0 | 10.0 | 0.00 | 0.01 | 0.00 | 87 | 1015.7 |
| 20260902233057 | 65 | 142 | 2.0 | 7.0 | 0.00 | 0.01 | 0.00 | 87 | 1016.2 |
| 20260902231555 | 65 | 106 | 1.0 | 6.0 | 0.00 | 0.01 | 0.00 | 86 | 1016.7 |
| 20260902230052 | 65 | 107 | 0.0 | 5.0 | 0.00 | 0.01 | 0.00 | 85 | 1016.7 |
| 20260902224552 | 65 | 115 | 2.0 | 7.0 | 0.00 | 0.02 | 0.00 | 84 | 1016.7 |